Theta_e
314 314 317 321 324 324 327 332 336 336 330 323 321 326 322 324 330 326 327 328 330 326 324 331 333 335 337 345 346 340 339 342 345 342 343 340 337 339 338 336 336 335 336 335 330 323 321 325 331 333 334 335 334 335 337 338 339 338 339 339 338 338 338 336 334 334 335 335 334 331 331 332 331 332 332 332 331 331 331 331 331 331 331 331 331 331 331 332 332 331 331 331 330 330 331 331 331
314 315 317 321 324 322 329 336 334 330 329 322 319 325 321 324 328 325 328 328 329 325 324 333 337 338 338 338 339 342 342 339 338 338 338 337 338 339 337 335 335 336 336 333 326 320 320 325 331 334 334 335 334 335 337 338 339 338 338 338 338 338 337 335 333 333 334 333 332 331 332 332 331 331 331 330 331 331 332 331 331 331 331 331 331 331 331 331 330 330 330 330 330 331 331 330 331
313 316 319 321 324 324 334 336 331 328 324 322 322 325 325 326 327 326 328 329 329 325 326 331 333 333 336 342 342 345 344 339 337 337 337 338 339 339 337 335 335 336 336 329 321 317 320 327 332 333 333 335 335 335 337 337 338 338 338 338 337 336 334 333 332 332 333 333 331 331 331 332 331 331 331 331 331 331 331 331 331 331 331 331 331 331 330 330 330 330 329 330 331 331 330 330 331
315 320 321 321 328 333 336 331 334 332 322 323 321 321 328 329 327 327 329 330 329 327 327 327 329 329 335 345 342 342 342 338 338 337 338 338 339 339 337 336 336 337 334 325 317 317 318 325 330 332 333 334 335 335 335 336 337 337 337 336 335 334 332 332 331 331 332 332 331 332 331 331 331 332 331 330 330 329 330 331 330 331 331 331 331 330 330 330 330 330 329 330 331 331 330 329 330
317 323 321 321 330 334 330 325 334 328 320 326 319 321 328 328 328 328 327 326 327 328 326 327 330 329 335 340 339 342 341 339 338 337 338 338 338 338 337 336 336 336 330 321 317 316 316 322 327 331 333 333 334 334 334 335 335 336 336 334 333 332 332 332 331 330 330 331 332 332 331 331 331 331 331 330 330 330 331 330 330 330 330 330 330 330 330 330 330 329 330 330 331 330 329 329 329
318 322 323 320 321 327 328 323 330 325 322 331 323 326 329 326 329 327 326 323 325 328 329 334 334 335 339 337 337 340 338 339 338 337 338 338 339 337 336 336 336 335 326 319 317 315 316 320 326 331 333 333 334 334 333 334 334 335 335 334 332 332 331 332 331 331 331 331 332 331 330 331 332 330 330 329 329 330 330 330 330 330 330 330 330 330 330 329 329 329 329 330 330 329 329 328 328
319 323 326 323 322 328 331 324 330 328 320 327 327 328 328 326 326 325 326 324 324 326 331 338 335 340 341 336 339 338 336 337 338 337 338 338 338 337 336 336 337 333 323 319 317 315 316 319 325 330 333 333 333 334 333 332 334 334 335 334 332 332 331 331 331 331 331 331 331 330 331 331 331 329 330 330 328 328 329 329 329 330 331 331 331 330 329 329 329 328 328 330 330 328 328 328 328
321 324 328 328 329 330 328 325 332 331 318 321 326 326 326 325 324 325 326 325 326 325 327 329 332 341 337 338 344 338 335 336 338 338 338 339 338 337 336 336 337 331 322 319 318 316 316 318 323 327 330 331 330 332 331 331 333 333 334 335 333 332 332 331 331 331 331 330 330 330 331 330 330 329 329 329 327 327 328 329 329 330 330 330 330 329 329 329 328 327 328 329 328 327 327 327 328
320 321 328 329 328 328 329 326 323 322 320 322 323 323 324 323 322 323 323 323 325 325 324 324 331 340 336 341 344 337 336 337 338 339 338 339 338 337 337 337 336 328 321 320 319 317 316 316 319 323 327 329 329 330 331 330 332 334 335 335 334 332 332 330 330 330 330 329 329 329 329 329 330 330 330 328 327 328 329 329 329 329 329 328 328 328 329 328 327 327 328 329 327 326 326 327 327
324 321 327 329 325 324 326 330 323 318 320 323 322 323 324 321 321 321 322 323 323 324 322 328 338 340 338 341 340 337 337 337 338 339 340 339 338 338 338 338 336 328 321 320 320 318 316 315 316 322 326 328 331 332 332 330 330 333 334 334 333 331 330 329 329 329 329 330 329 329 328 329 330 330 330 329 328 328 329 329 329 328 328 328 328 328 327 327 326 327 327 326 326 326 325 326 328
331 327 326 327 324 320 323 331 326 320 319 320 320 322 322 319 320 320 322 322 323 324 322 332 342 338 339 340 339 337 336 338 339 340 340 340 339 339 339 339 336 329 323 321 321 319 317 315 316 321 325 328 332 334 333 332 330 332 333 333 332 330 328 328 328 329 329 330 329 329 328 329 329 330 331 329 328 327 329 330 329 329 328 328 328 327 326 326 326 327 326 325 325 326 325 326 328
329 330 332 328 327 325 328 330 322 321 319 319 319 319 319 318 321 322 324 323 323 324 322 330 339 339 342 342 339 335 336 338 339 340 340 340 340 340 339 339 336 329 324 322 322 321 319 316 316 320 324 327 331 332 332 332 331 331 332 332 331 329 328 326 327 329 329 329 328 328 328 328 328 329 329 329 327 326 327 328 328 327 327 326 326 326 326 325 326 326 325 324 325 325 326 327 327
329 332 333 327 332 332 328 325 321 322 319 321 321 318 319 318 322 323 324 325 325 324 319 324 334 341 344 341 338 335 336 338 339 340 340 340 340 340 339 339 337 330 326 323 322 322 321 318 316 318 322 326 329 328 327 328 329 330 331 330 331 329 327 324 325 328 327 326 326 326 328 328 327 328 327 327 327 326 326 326 325 326 327 327 327 327 325 325 326 325 324 324 324 325 325 326 325
328 335 331 324 332 332 327 323 320 321 319 323 322 318 320 319 319 320 323 325 324 322 318 325 334 342 343 337 338 337 337 337 338 338 338 340 339 339 340 339 337 332 328 325 324 323 322 321 318 317 319 322 326 325 323 323 325 328 330 329 329 328 326 323 323 324 323 325 326 326 327 326 326 327 327 327 325 325 326 325 324 323 324 325 326 326 325 325 324 323 323 323 324 324 325 325 324
325 337 332 326 328 325 325 323 320 321 320 323 321 319 320 317 317 317 321 324 321 319 317 324 330 337 341 341 341 337 336 337 337 336 337 339 339 340 340 339 337 333 331 328 325 324 324 323 320 318 318 318 321 322 322 321 322 324 326 326 326 326 324 322 322 322 322 324 325 325 326 326 326 326 327 327 324 323 325 324 323 323 320 321 325 325 324 324 322 322 322 323 323 323 323 323 323
328 337 330 326 328 324 326 324 321 322 321 324 321 319 319 316 317 317 317 320 319 322 326 326 325 329 337 343 342 334 336 337 336 337 338 340 339 340 340 339 337 335 333 331 328 326 325 324 323 322 319 318 318 319 320 320 322 321 321 321 322 323 322 322 322 322 322 323 324 325 325 325 324 323 325 326 325 324 324 324 322 322 319 319 322 323 322 320 320 320 320 320 320 320 319 319 320
326 331 329 326 329 327 329 324 320 324 324 324 320 319 321 317 317 315 315 322 325 330 337 334 329 333 335 337 335 334 337 336 335 338 339 340 339 339 339 338 336 335 334 333 332 329 327 325 324 324 322 321 319 318 318 318 320 320 319 318 317 318 320 323 323 321 320 321 323 324 324 324 324 323 323 324 325 325 323 323 322 320 318 317 319 319 318 318 319 319 318 318 318 317 317 318 320
323 328 328 325 328 329 332 326 320 324 323 321 320 319 320 318 317 315 317 325 328 333 336 335 335 334 332 332 332 336 337 335 336 338 339 339 339 338 338 337 337 336 335 335 334 333 331 328 326 325 324 324 322 320 319 318 318 319 319 318 317 316 318 321 322 319 317 317 319 322 322 321 321 321 321 321 322 321 321 321 321 319 318 316 316 316 317 318 318 318 318 317 318 318 318 320 322
326 328 325 330 338 329 326 325 321 321 320 320 320 318 319 319 317 316 321 323 327 339 336 334 339 335 332 332 334 336 335 335 335 337 338 338 338 338 338 338 338 337 337 337 336 335 334 333 330 327 326 325 325 323 322 320 319 319 319 318 318 317 316 317 318 316 317 320 322 324 322 320 321 319 318 318 318 318 318 320 320 319 317 316 316 316 316 317 318 318 318 318 319 320 320 321 322
327 323 322 339 344 326 319 319 319 320 319 321 319 318 319 319 317 316 321 321 325 341 341 341 342 336 335 334 333 335 334 334 334 335 337 336 337 338 338 338 338 338 339 338 337 337 337 336 333 331 329 328 327 326 325 323 322 320 319 319 318 318 316 316 315 315 322 327 326 327 326 325 325 324 320 317 316 315 316 319 320 318 317 317 316 316 316 317 317 317 319 320 321 321 322 322 321
321 320 327 338 329 320 319 317 318 318 317 320 320 318 318 317 317 316 318 320 321 326 333 346 344 335 336 334 332 333 333 333 333 334 334 335 337 337 338 338 338 338 338 339 338 338 338 337 336 334 333 332 331 330 328 325 324 323 322 321 320 319 318 317 315 316 325 329 328 328 327 327 327 326 324 320 316 312 315 316 317 316 316 316 316 316 316 316 316 317 319 321 322 322 322 322 321
318 321 330 331 319 317 320 317 317 318 316 318 320 319 318 316 316 316 317 320 320 319 322 335 339 335 335 334 333 332 332 333 332 333 333 334 335 335 337 337 337 338 338 339 338 338 338 338 337 336 334 334 333 333 333 330 327 325 325 324 323 322 320 319 316 319 327 329 329 329 328 328 327 326 325 323 317 311 312 314 314 314 313 314 315 316 316 316 316 316 318 320 321 321 322 321 321
319 322 325 322 317 317 319 317 315 317 317 318 319 318 317 316 316 315 316 320 321 319 317 328 335 333 334 333 332 333 332 332 332 332 333 333 334 335 336 336 337 336 338 338 338 339 338 338 338 337 335 335 335 335 335 334 331 328 327 327 326 325 323 321 319 320 327 329 329 329 328 327 327 326 324 323 319 313 312 313 313 313 313 314 315 317 316 316 316 316 316 318 320 321 321 321 320
318 321 322 318 316 318 319 317 316 317 317 318 317 317 317 318 318 313 315 319 321 316 312 325 334 331 333 333 332 332 331 332 332 333 333 333 334 334 335 336 335 335 337 338 338 338 339 339 339 338 337 336 336 335 336 335 334 332 330 330 329 327 325 324 323 322 325 328 328 328 328 328 328 327 325 323 321 317 317 318 316 313 314 317 316 319 319 318 318 318 318 318 318 320 320 321 320
318 320 321 317 315 318 317 316 317 316 315 316 316 317 317 317 316 313 316 317 317 315 315 327 334 331 333 334 333 332 331 332 332 333 333 333 334 334 335 335 335 334 335 337 338 338 338 339 338 338 338 337 337 336 336 336 335 333 332 332 331 330 328 326 326 325 325 326 327 327 327 327 328 328 324 324 323 321 321 323 322 318 318 319 318 318 320 320 320 320 321 320 318 317 318 319 319
319 319 320 318 316 315 315 314 315 316 315 314 316 317 315 314 313 314 318 316 318 320 324 333 334 333 335 333 332 331 331 332 331 333 333 333 333 333 334 334 335 335 334 336 337 337 338 338 338 339 338 337 337 337 337 336 335 334 332 332 332 332 330 329 329 328 328 328 328 327 327 327 327 326 324 324 325 324 323 323 323 323 321 321 319 317 318 318 319 320 319 319 318 317 316 317 318
316 317 318 317 316 315 314 315 314 315 315 314 317 317 314 314 313 317 317 315 323 327 330 334 334 334 335 333 333 331 331 331 331 333 332 333 333 332 334 333 335 335 335 335 336 337 337 337 338 338 338 338 338 337 337 336 335 334 333 332 333 332 331 331 331 330 329 329 329 329 329 328 328 326 324 325 326 326 326 324 323 324 323 323 321 320 318 318 318 318 317 317 316 315 315 316 317
313 315 316 315 315 315 314 315 315 315 314 315 317 316 315 314 314 320 317 314 325 333 331 333 335 334 334 333 332 330 330 331 332 332 332 332 332 332 333 333 333 334 335 335 335 336 337 337 338 338 338 338 338 337 337 337 336 335 334 333 333 333 332 331 331 331 330 329 330 330 330 330 329 327 326 326 327 327 327 326 325 324 324 324 323 322 321 320 319 319 319 318 317 316 316 317 317
312 314 316 315 314 315 316 315 315 315 314 316 317 315 315 316 316 319 315 314 324 331 332 332 334 333 333 333 331 330 330 330 331 331 332 332 332 333 332 332 333 333 334 334 334 335 336 337 337 337 337 337 338 337 337 337 336 335 335 334 334 333 333 332 331 331 330 329 330 330 330 330 330 329 328 327 327 327 327 327 327 325 325 325 325 324 323 322 322 321 321 320 319 319 318 319 319
313 314 315 317 314 316 317 315 315 315 314 316 315 315 318 318 317 316 313 315 323 330 331 330 331 332 332 331 331 330 329 329 330 331 332 332 332 333 332 333 332 333 333 333 333 334 334 335 336 337 336 337 337 337 337 337 336 336 335 334 334 333 333 332 332 331 330 330 329 329 330 330 330 330 329 328 327 327 327 327 327 326 326 325 325 325 325 324 323 323 322 322 321 321 320 320 319
314 313 316 319 317 320 319 314 316 314 314 316 312 316 322 319 316 315 312 314 323 330 329 326 327 328 329 330 330 331 329 328 330 331 332 333 333 333 332 333 333 333 333 333 334 334 334 334 335 336 336 336 336 336 336 336 336 336 336 335 334 334 333 333 332 331 330 330 330 329 329 329 329 329 329 329 328 328 327 327 327 326 326 326 326 326 326 325 324 324 323 323 322 322 321 321 320
316 314 318 317 315 324 321 313 317 315 314 314 311 317 322 319 318 316 311 312 318 324 323 321 322 322 323 327 328 330 329 328 329 331 332 332 333 333 333 333 333 333 333 333 334 334 334 334 334 335 335 336 336 336 336 335 336 335 335 335 334 334 333 334 333 332 331 330 330 330 329 329 329 329 329 329 328 328 328 327 327 327 327 326 326 326 326 325 325 325 324 324 323 323 323 323 323
322 320 323 320 315 320 318 314 317 316 314 313 312 317 320 317 317 314 311 311 314 317 318 318 318 317 317 320 324 327 327 328 328 329 331 332 333 333 333 333 333 333 334 334 334 334 334 334 334 335 335 336 336 335 335 335 335 335 335 335 334 334 333 334 333 332 332 331 331 330 329 329 329 329 328 329 329 328 328 328 328 328 327 327 327 326 326 326 326 325 325 325 325 324 324 324 324
322 320 320 322 318 316 317 317 316 315 315 314 313 315 317 317 315 312 311 311 312 313 314 315 316 316 314 315 319 323 325 327 327 327 330 331 332 333 333 333 333 334 334 334 334 334 335 334 334 334 335 335 335 335 335 335 335 335 335 334 334 335 334 334 334 333 332 332 331 330 330 329 328 328 328 328 328 328 327 327 327 328 328 328 327 327 326 326 326 326 326 326 326 326 325 325 325
320 319 316 318 316 314 317 317 315 315 314 314 314 313 316 318 316 313 311 311 313 313 312 313 314 315 315 314 316 320 323 325 324 325 329 330 331 332 333 334 334 334 334 334 335 335 335 335 334 334 334 335 335 335 335 335 336 335 335 335 335 335 334 334 334 334 333 333 332 331 331 330 329 329 328 328 328 328 328 327 326 327 328 327 327 327 327 326 326 326 326 326 326 326 326 326 325
320 321 321 321 317 315 318 318 316 314 313 314 315 314 315 315 316 315 312 311 312 313 312 311 312 313 314 314 315 319 322 323 322 323 327 329 330 331 332 333 334 334 334 335 335 335 335 335 335 334 334 334 334 334 335 335 335 336 336 335 335 335 334 333 333 333 333 333 333 333 332 331 330 330 329 329 329 329 329 328 327 326 327 327 327 327 327 327 327 326 327 327 326 326 326 326 324
315 315 318 321 318 316 318 318 315 313 314 314 314 314 314 314 316 316 312 312 313 313 313 312 312 312 313 314 315 318 321 320 319 320 324 327 329 330 331 332 334 334 334 335 335 335 336 335 335 335 334 334 334 334 335 335 335 336 336 335 335 335 334 333 333 332 333 334 333 333 333 333 332 331 331 331 330 330 329 329 328 327 328 327 326 326 325 326 326 325 326 326 327 326 325 325 324
311 313 315 317 318 318 316 315 316 314 313 315 315 314 314 314 315 314 311 312 314 313 313 313 313 312 311 313 315 317 318 317 316 318 320 325 328 329 331 331 332 333 334 335 335 335 335 335 335 335 335 334 334 334 334 335 335 335 335 335 335 334 333 333 332 332 332 333 333 333 333 333 332 332 332 331 331 331 330 330 329 329 329 327 325 324 324 326 326 326 326 326 327 325 325 324 324
311 312 313 316 319 319 315 313 315 314 313 317 317 314 315 315 314 313 312 313 313 313 312 313 313 313 311 311 314 315 315 316 317 316 316 322 327 328 330 331 331 332 333 334 335 335 335 335 335 335 335 335 334 334 334 334 334 334 334 334 334 333 332 331 332 332 332 332 332 331 332 332 332 332 332 331 331 331 330 330 330 330 329 327 326 325 325 327 328 327 326 326 326 325 324 324 324
312 314 314 317 317 317 315 313 314 313 312 315 316 315 316 314 313 314 314 312 312 312 313 312 312 313 312 311 312 313 315 316 317 316 313 316 323 327 328 330 331 332 332 333 334 334 335 334 335 335 335 335 335 334 334 334 333 333 333 333 332 331 330 331 332 333 333 333 332 331 332 333 332 332 332 331 331 330 330 330 329 330 329 327 328 327 327 328 327 326 325 326 326 325 324 324 324
314 318 318 319 318 318 316 315 315 313 313 315 315 316 319 319 316 315 314 312 311 312 313 313 313 312 312 313 312 312 314 314 316 318 315 313 319 325 327 329 330 331 331 332 333 333 334 334 335 335 335 335 335 334 334 334 333 333 333 333 332 331 331 331 332 333 333 334 333 332 332 332 332 332 332 332 331 331 330 330 330 330 329 329 330 329 329 328 327 326 327 327 326 326 325 324 325
313 318 320 320 319 319 318 318 317 314 314 316 312 314 327 331 321 315 313 311 311 312 313 314 313 312 312 313 313 313 315 314 315 317 314 312 316 322 326 328 328 330 331 331 332 333 333 334 334 334 335 334 334 334 334 334 333 333 333 333 332 331 331 331 331 332 333 333 332 332 332 332 332 332 332 331 331 331 331 331 331 331 330 330 329 329 329 329 328 328 328 328 327 326 326 324 324
312 317 322 322 319 320 322 319 318 318 316 315 313 315 324 325 320 321 318 313 312 311 311 313 312 312 312 312 312 314 314 315 315 317 314 311 315 320 323 326 328 329 330 331 332 332 333 333 333 333 334 334 334 334 333 333 333 333 333 333 332 331 331 330 331 331 331 331 331 331 332 332 332 331 331 331 331 330 331 331 331 331 330 329 329 329 329 329 328 328 327 327 327 326 326 324 324
315 319 323 324 319 322 324 317 320 324 317 317 322 318 315 316 317 321 318 315 316 314 312 313 310 311 312 311 312 313 314 314 315 319 318 312 313 318 322 325 328 329 329 330 330 331 332 332 332 332 333 333 333 333 333 333 333 333 333 332 332 332 331 330 330 330 330 330 330 331 331 331 331 331 331 330 330 329 329 329 329 328 329 328 327 327 327 327 326 326 325 325 325 325 324 323 323
321 323 321 322 320 323 324 319 322 322 314 319 325 315 312 321 325 323 317 314 318 319 317 316 312 310 311 311 312 313 314 315 316 319 318 312 311 316 321 323 326 328 329 329 330 330 331 331 332 332 332 332 333 333 333 333 333 333 333 332 332 332 331 330 330 330 330 330 331 331 331 331 330 330 330 329 329 328 327 328 327 327 328 327 326 325 325 325 325 324 323 323 323 323 322 321 321
321 322 319 322 322 322 324 325 326 317 313 322 325 315 313 322 329 326 316 313 319 322 320 318 314 312 312 314 314 314 316 321 322 318 311 309 311 314 318 320 322 325 327 328 329 330 331 331 332 332 332 333 333 333 333 332 333 332 332 332 331 331 330 330 330 330 330 330 330 331 330 330 329 328 328 327 326 326 326 326 325 325 326 325 325 325 325 324 323 322 322 322 321 321 321 320 319
318 321 321 320 323 327 331 334 328 315 317 328 328 320 313 315 326 325 315 315 320 319 319 318 316 315 315 315 316 318 323 327 328 322 312 308 311 312 313 316 318 320 322 324 326 328 330 330 331 332 332 333 333 333 333 332 332 332 332 331 331 330 330 329 329 329 329 328 328 328 327 327 326 326 325 325 325 324 324 324 323 323 323 323 323 323 323 322 322 322 321 320 319 319 319 318 317
319 326 323 318 323 328 331 333 324 316 323 328 323 318 313 314 323 323 317 318 317 314 316 318 317 319 322 323 323 325 329 329 328 327 321 313 310 312 312 312 313 315 316 317 320 323 325 327 329 330 331 332 333 333 333 333 332 332 332 331 331 330 329 329 329 328 327 326 326 326 325 325 325 324 324 324 324 324 323 322 320 318 317 318 318 319 320 320 320 319 318 318 317 317 316 315 315
318 323 320 319 323 322 322 325 322 321 323 319 314 315 315 317 319 317 317 316 314 313 313 316 317 319 329 332 328 326 328 330 329 328 328 320 311 311 312 312 312 312 313 313 314 316 318 321 324 327 328 329 331 332 333 333 332 331 331 331 331 330 329 329 328 327 326 326 326 325 325 324 323 323 322 322 322 321 320 318 316 315 314 314 314 314 314 314 314 313 313 313 313 312 312 311 312
314 317 318 321 323 316 315 320 319 319 319 314 311 314 317 318 317 317 317 313 313 313 311 316 318 320 330 331 326 325 326 330 330 328 330 324 311 309 312 313 312 312 312 312 312 312 313 315 320 324 326 327 328 330 331 332 332 331 331 330 330 330 329 328 327 327 326 325 324 324 324 323 322 320 319 318 318 318 317 316 315 315 314 314 314 312 311 310 310 309 308 308 308 308 308 309 309
315 318 318 322 326 321 318 320 320 318 318 314 310 314 321 320 315 316 315 312 314 314 315 318 319 319 322 323 324 327 327 328 327 327 327 317 308 309 312 312 313 313 312 312 312 311 311 313 317 322 324 325 327 328 329 330 330 330 329 329 329 329 328 327 326 325 325 324 323 323 322 321 319 318 317 317 316 316 316 315 315 314 314 313 313 312 310 310 309 307 307 306 304 304 304 304 304
318 318 316 318 323 326 321 319 324 323 319 316 312 316 325 319 311 312 313 313 314 314 315 317 320 319 318 323 326 325 326 327 326 327 326 316 308 310 312 311 313 313 313 313 312 312 311 311 315 320 323 325 325 327 328 328 328 328 328 328 327 327 326 325 324 323 323 323 322 321 320 318 317 316 316 316 315 315 314 313 313 312 311 310 310 310 310 309 308 306 305 301 298 297 297 296 296
316 314 317 318 317 324 321 312 316 318 316 318 314 316 324 317 312 318 318 316 315 314 315 318 320 319 319 324 325 324 326 326 323 324 324 315 309 310 312 312 314 313 313 313 312 312 311 311 313 318 322 323 324 325 326 326 327 326 326 326 325 325 324 324 323 322 321 320 319 319 317 316 316 315 314 313 312 311 310 310 309 308 307 307 307 307 306 305 302 300 297 295 294 293 293 292 292
317 315 318 317 313 321 323 315 317 316 315 322 316 314 321 317 316 324 320 314 315 316 316 317 316 317 321 325 325 324 324 322 320 319 315 309 307 310 312 313 314 314 315 315 313 313 312 311 313 316 320 322 322 324 324 324 325 324 324 324 324 323 323 322 321 320 319 318 317 317 316 315 313 312 311 310 308 308 307 307 307 306 305 303 302 300 298 297 295 294 293 292 292 292 292 292 292
317 319 317 317 316 319 320 316 318 314 312 323 320 313 317 317 319 325 318 315 320 317 315 315 315 316 320 323 324 323 320 319 318 317 314 307 305 309 311 312 314 314 315 317 315 314 313 313 314 317 319 321 321 322 323 323 323 323 322 322 322 322 322 321 319 317 317 317 316 315 313 312 310 308 307 306 306 306 305 304 302 300 298 296 295 294 293 293 292 292 292 292 292 292 292 292 291
314 316 313 315 320 322 320 317 319 317 315 322 321 314 319 322 321 323 317 318 323 317 316 317 315 314 316 320 323 322 320 320 317 316 315 308 304 307 310 311 312 313 314 317 317 316 315 315 316 318 319 319 320 321 321 321 321 321 321 321 321 320 319 318 316 316 316 315 314 312 310 308 306 306 305 305 304 302 299 297 295 294 293 293 293 292 292 292 292 292 292 292 292 292 291 291 291
313 315 313 314 314 316 319 317 320 324 322 323 320 317 329 330 318 318 316 315 318 317 317 319 315 311 311 315 319 321 320 318 315 315 313 305 303 306 308 309 310 311 313 316 317 317 316 317 318 318 318 319 319 320 320 320 320 320 320 319 318 317 317 316 315 314 313 311 309 307 306 305 305 304 303 301 298 296 294 293 293 293 293 292 292 292 292 292 292 292 292 291 291 291 291 291 290
315 315 315 315 314 317 317 315 319 321 319 323 320 318 331 331 316 315 315 313 314 313 314 317 316 312 310 311 315 318 319 316 313 313 310 303 302 305 306 307 308 309 312 315 316 316 316 316 317 317 317 318 318 318 319 319 318 317 317 316 315 315 314 314 312 311 309 307 306 305 304 304 302 300 297 295 293 293 293 293 293 293 292 292 292 292 292 292 291 291 291 291 290 290 290 290 289
Wind_Speed
8 7 6 6 6 4 1 3 2 3 2 1 2 1 2 2 2 3 2 1 3 2 2 3 4 4 6 6 8 7 5 1 3 4 2 4 21 24 16 19 21 19 18 15 13 12 12 15 17 17 17 14 13 14 15 16 18 19 19 18 18 18 17 18 18 19 19 16 16 16 17 18 18 17 17 18 18 18 18 18 18 18 18 18 18 17 17 16 16 16 18 18 18 20 22 22 20
8 7 5 5 4 1 2 3 3 4 3 1 2 2 1 2 3 5 4 3 4 3 2 7 9 10 9 9 8 5 5 4 1 3 2 14 24 19 18 20 21 20 18 15 13 12 13 16 18 19 18 14 13 15 16 16 18 18 18 18 17 17 17 17 17 18 18 16 16 16 16 17 17 16 16 17 17 17 17 18 18 18 17 18 18 18 18 17 17 17 18 18 19 21 22 21 19
8 6 5 4 2 2 1 3 2 1 2 1 3 2 1 3 4 6 6 7 7 7 6 7 8 6 6 6 4 4 1 5 3 3 6 19 19 17 23 20 21 20 17 16 13 13 14 17 19 19 19 15 13 15 16 16 17 18 18 18 17 17 16 16 16 17 17 16 17 17 15 16 17 17 17 17 17 17 17 18 18 18 17 18 18 18 18 18 18 18 19 18 18 20 20 20 19
7 7 7 4 2 3 3 3 1 4 2 3 2 3 0 5 6 5 5 5 6 5 4 4 5 3 5 7 3 4 2 1 4 5 6 14 16 23 25 21 21 18 16 15 13 13 15 18 19 19 19 16 14 15 15 15 17 18 19 18 17 17 16 16 16 16 17 17 17 17 16 17 17 16 17 17 17 17 18 18 17 17 17 17 17 18 18 18 18 18 18 18 18 19 19 19 18
7 6 5 4 2 1 2 1 1 3 3 4 3 3 3 6 6 5 3 2 3 5 5 4 3 2 4 5 2 3 2 3 5 7 8 12 21 27 25 23 21 18 16 14 13 13 14 17 19 20 19 16 13 13 13 14 16 17 18 18 17 16 16 16 15 16 17 17 16 16 16 16 16 16 16 16 17 17 17 17 17 17 17 17 17 17 17 17 17 17 17 17 17 18 19 19 18
6 4 4 5 1 1 2 1 1 1 4 5 4 4 6 6 7 6 4 1 2 6 5 4 4 2 3 2 2 4 4 4 6 8 12 17 24 26 24 24 21 18 17 15 14 13 14 16 19 20 18 16 15 14 13 14 15 16 17 16 15 15 15 15 15 15 16 16 16 16 16 15 16 15 15 16 15 16 16 16 16 16 17 16 16 16 16 16 15 15 17 16 17 18 19 18 18
6 4 3 4 1 1 3 2 3 3 2 5 6 7 8 6 7 8 6 3 5 6 5 4 5 7 2 1 3 2 2 5 8 11 16 23 25 24 24 23 21 19 17 15 14 14 15 16 20 21 18 17 17 16 13 13 14 15 15 15 14 14 14 14 14 16 16 16 16 16 16 15 14 14 15 15 15 16 16 16 16 16 16 16 15 15 15 14 14 15 17 16 16 18 18 17 16
6 3 1 3 1 3 3 2 4 3 1 3 6 8 9 8 7 7 6 3 3 2 5 3 5 7 1 1 3 3 2 9 12 16 21 25 25 24 25 23 22 20 17 16 15 14 15 16 19 19 17 16 16 15 13 13 14 14 14 14 14 13 13 14 15 16 16 16 16 16 14 14 13 13 14 15 15 16 16 15 15 15 15 15 15 15 14 13 13 15 16 16 16 17 16 15 15
5 3 1 3 1 2 2 2 3 3 0 3 4 5 7 7 6 6 6 3 4 4 4 4 4 6 1 4 2 3 5 15 17 21 24 25 26 25 24 22 22 20 18 17 15 15 15 15 16 17 18 17 16 14 12 13 14 13 13 13 13 12 13 14 15 16 16 15 16 15 13 13 13 13 13 13 15 16 15 15 14 14 14 14 14 14 13 13 13 14 15 16 17 16 15 14 14
4 4 1 2 1 2 3 3 2 2 1 3 4 6 7 6 4 5 7 5 5 6 3 2 5 6 5 4 1 1 8 20 24 24 25 25 25 24 23 21 21 21 20 18 16 15 14 14 15 17 19 18 15 14 13 13 13 13 12 12 12 12 13 14 15 16 15 14 15 15 14 13 13 13 12 12 14 15 14 14 14 13 13 14 13 13 13 13 13 13 14 16 16 14 14 13 14
3 4 2 2 3 1 3 3 3 2 1 1 2 5 7 5 6 4 6 6 3 7 3 2 6 5 5 3 1 2 12 24 29 27 26 24 23 23 21 20 20 20 19 18 17 15 15 14 15 17 19 18 15 14 14 12 13 13 11 11 10 11 12 13 16 16 14 14 14 15 14 13 13 13 13 12 13 14 14 13 13 13 12 12 12 12 12 13 13 13 13 15 14 13 13 13 13
2 3 4 3 2 3 4 3 3 3 1 0 3 5 5 6 7 5 7 6 4 7 4 2 5 5 5 2 2 3 13 23 28 28 26 24 23 22 20 20 20 19 18 18 17 16 15 14 14 16 17 17 15 15 14 13 14 13 12 11 9 10 11 13 16 15 12 13 14 14 14 13 13 13 13 13 12 13 13 12 12 12 11 11 11 11 11 12 12 12 13 15 14 13 13 13 13
3 1 5 2 3 3 3 4 3 1 1 3 4 3 4 6 7 9 8 7 7 8 3 5 8 5 4 1 1 2 10 21 27 28 26 24 24 22 20 20 20 19 18 17 17 16 15 14 14 15 16 16 15 14 12 13 14 14 14 12 10 9 10 13 16 14 12 12 13 13 13 12 12 11 11 11 11 11 11 12 12 12 12 11 11 11 11 11 11 12 14 15 14 13 13 12 11
2 3 4 1 1 3 4 2 2 3 3 5 3 2 3 3 6 8 8 8 5 5 3 6 10 6 3 2 1 2 10 22 27 25 24 25 25 22 21 20 20 20 18 17 17 17 16 15 14 15 15 15 14 12 10 11 13 14 13 12 11 9 9 11 13 12 11 12 12 13 12 11 11 10 9 9 9 10 11 11 11 10 9 10 10 10 10 11 12 13 14 14 13 12 11 10 9
1 2 4 1 2 1 3 3 4 6 4 5 2 3 3 2 4 5 7 9 3 3 4 5 6 3 4 6 5 8 15 25 25 21 24 27 26 23 21 20 20 20 19 18 16 17 17 15 15 14 14 13 13 11 10 10 11 11 11 11 10 9 9 10 11 11 10 11 12 12 12 11 10 8 8 7 7 9 9 9 8 7 7 8 9 10 11 11 13 13 13 12 11 10 9 8 8
2 3 5 1 2 2 3 2 3 4 5 5 3 2 6 2 3 3 3 7 3 1 3 2 1 1 9 9 9 18 25 27 23 22 27 29 27 24 23 21 21 20 19 18 17 16 17 16 15 14 13 13 12 11 10 10 10 10 10 10 10 10 10 11 11 11 10 10 11 12 11 10 9 8 8 7 7 7 6 5 5 6 7 7 8 10 11 12 13 12 12 12 11 10 9 8 8
3 4 3 1 1 3 4 4 4 4 5 5 4 2 7 2 1 2 2 6 6 3 4 1 4 1 9 5 13 30 31 26 24 27 29 28 27 25 24 23 23 22 20 19 18 17 17 17 16 15 14 13 12 12 12 11 11 10 10 10 10 10 11 11 10 11 11 11 11 11 10 9 8 7 7 6 6 6 4 3 3 5 6 6 7 9 11 11 12 11 11 11 11 10 10 10 10
3 3 2 2 2 4 4 7 7 5 6 7 6 4 8 7 3 3 4 8 6 5 6 2 5 4 5 8 22 34 30 27 27 30 29 26 26 24 24 25 25 24 23 21 19 19 18 17 17 16 15 14 13 13 12 12 12 11 10 10 10 10 11 10 9 10 10 11 11 10 9 8 7 6 5 6 6 5 5 4 4 4 5 5 6 8 9 10 10 10 10 10 11 11 11 11 10
3 2 2 4 5 5 5 7 7 5 8 8 6 5 7 8 6 4 4 3 4 6 5 4 6 7 7 15 27 31 28 27 27 30 28 25 26 25 24 24 25 25 24 23 22 21 19 18 18 17 17 15 14 14 13 12 12 12 11 10 9 10 10 10 9 10 11 11 11 10 10 8 6 5 4 5 5 5 5 5 4 4 4 5 6 7 9 9 9 9 8 9 9 10 11 10 8
2 2 1 5 5 4 5 5 7 6 9 11 6 5 6 6 5 4 6 6 4 5 3 1 3 5 8 14 23 27 26 25 26 28 26 26 27 27 27 26 27 28 27 26 25 23 21 19 19 18 17 17 16 15 14 13 13 12 12 10 10 9 9 10 10 10 12 11 11 10 9 8 6 4 3 3 4 5 5 6 5 4 4 5 6 7 8 9 9 8 8 7 7 7 8 8 7
1 3 4 6 2 3 6 3 5 5 8 12 8 5 6 6 3 4 9 7 2 5 7 7 9 11 11 12 18 23 24 22 22 24 24 24 24 26 28 29 29 29 28 27 26 25 23 21 20 20 19 18 17 16 15 14 14 13 12 11 10 10 10 10 11 12 12 11 10 9 7 6 5 3 1 1 2 5 6 6 6 5 4 5 6 7 8 8 8 8 7 6 5 4 4 4 4
2 3 6 6 2 2 6 4 2 4 5 8 9 7 6 4 1 5 11 8 5 7 8 10 13 15 15 16 19 20 20 20 20 21 22 23 23 24 25 26 26 26 27 27 27 26 24 23 21 21 21 19 18 17 15 15 15 14 13 13 12 11 11 10 12 14 13 12 10 8 8 7 7 4 3 3 2 4 6 6 6 5 5 5 6 7 8 8 8 8 7 6 5 4 4 3 3
2 4 3 4 3 3 4 3 2 5 7 8 9 6 5 6 2 5 10 8 7 7 8 11 13 18 21 21 20 17 17 18 20 22 23 23 23 23 25 26 26 27 28 27 27 26 25 24 22 21 22 21 19 18 16 15 15 15 14 13 13 13 13 12 13 14 14 13 12 10 10 9 8 6 5 5 3 4 6 5 6 6 6 6 7 7 8 8 8 8 7 7 6 6 6 6 5
4 5 4 3 4 5 3 4 3 4 7 8 7 6 7 8 5 4 6 8 6 4 7 13 15 19 20 18 17 17 19 21 22 24 25 26 26 25 26 27 28 29 29 27 26 26 26 25 23 22 22 22 20 19 18 16 15 16 15 14 14 13 14 14 13 14 15 13 12 11 10 9 8 7 8 7 4 5 6 5 4 6 6 6 7 7 8 8 8 8 8 8 8 8 8 8 7
4 6 4 1 2 3 3 4 1 4 4 3 8 8 7 7 5 6 7 8 3 1 7 13 14 16 16 15 15 17 19 21 22 22 23 23 24 24 24 25 27 28 29 29 27 26 26 26 25 24 23 22 21 20 20 18 16 17 17 16 14 13 14 14 13 14 15 14 12 11 10 9 9 9 10 9 6 6 7 6 4 5 7 7 7 7 8 8 8 8 7 8 9 10 10 10 9
5 6 4 2 2 3 3 3 1 3 2 4 8 5 2 3 2 4 7 7 2 5 9 12 13 13 13 12 14 17 17 19 22 23 23 23 23 23 23 24 25 27 30 30 30 28 27 26 26 25 24 23 22 22 22 20 18 18 19 17 15 14 13 12 11 12 13 13 12 11 10 9 9 10 11 10 9 7 7 8 7 7 7 7 7 7 7 8 9 9 9 9 10 11 12 11 11
6 5 4 2 1 2 2 1 3 1 0 4 7 4 1 3 0 3 7 5 6 8 9 10 13 13 13 11 12 17 18 21 26 24 23 22 23 25 26 26 26 28 30 30 31 30 28 28 28 27 26 25 24 24 24 22 20 20 20 18 17 16 14 13 12 11 12 12 11 11 11 10 10 11 11 11 10 9 9 9 9 9 9 9 9 8 8 10 11 11 11 11 12 13 12 12 12
8 4 3 1 1 2 1 1 4 1 1 3 6 5 2 5 0 6 7 6 8 10 10 10 12 11 12 12 10 13 17 22 25 23 23 25 27 28 29 29 29 29 31 30 31 31 30 30 29 28 27 27 27 26 25 24 22 21 20 19 19 18 16 15 14 13 12 12 12 12 12 12 10 11 12 12 12 11 11 11 11 12 12 11 10 10 11 11 12 12 13 13 13 13 13 12 13
6 5 4 2 3 3 3 3 3 1 2 5 6 4 3 3 5 7 4 7 7 9 11 9 10 9 10 10 9 10 15 19 20 22 27 30 31 31 32 33 33 32 33 32 31 32 32 31 31 31 29 29 29 28 27 26 24 23 21 21 20 19 18 17 16 15 14 14 14 13 13 12 12 11 12 13 14 13 13 12 12 13 13 12 12 12 13 13 13 13 14 14 14 14 14 14 15
4 3 3 1 2 3 5 3 1 1 2 3 3 2 5 9 10 5 4 9 8 8 9 9 8 8 8 8 8 9 13 17 20 26 30 30 31 32 33 34 35 35 34 33 33 34 33 33 33 33 32 31 31 30 29 27 26 25 24 23 21 21 20 19 18 17 17 16 16 16 14 13 13 12 12 14 15 14 14 14 14 14 13 13 14 14 14 14 14 14 14 15 15 15 15 16 17
2 2 2 3 3 5 5 2 4 3 1 2 3 3 5 9 11 5 6 10 11 10 9 9 8 7 7 8 9 9 12 18 24 29 30 31 32 33 34 34 35 36 35 35 36 35 34 34 34 34 34 33 32 31 30 29 28 27 26 25 24 23 23 22 21 20 19 19 18 18 17 16 15 14 14 14 16 15 14 14 14 14 13 14 15 15 15 15 15 15 15 16 16 16 17 18 19
1 3 3 1 4 5 6 2 7 6 1 3 5 3 5 8 10 6 7 9 10 11 9 9 8 8 8 7 8 8 10 17 23 26 29 31 32 33 35 34 34 36 36 36 36 36 36 35 34 35 35 35 34 32 31 30 29 28 27 27 26 25 25 25 24 23 21 20 21 20 19 19 18 17 16 16 17 16 15 14 13 13 14 14 15 16 16 16 16 16 16 17 18 18 18 19 20
3 2 3 2 4 3 3 2 5 5 2 1 3 2 4 5 7 4 7 9 9 9 9 10 9 9 9 8 8 8 8 11 16 23 28 31 32 33 35 36 36 36 37 37 36 36 36 35 35 35 36 35 34 33 31 30 29 29 28 27 26 25 25 25 25 24 22 22 23 22 20 19 19 18 18 18 18 17 17 15 14 13 14 15 16 17 17 17 17 18 18 18 19 19 20 21 21
4 1 2 3 4 3 2 3 5 4 3 4 4 3 5 6 6 3 5 9 8 9 9 10 9 8 8 7 8 8 8 9 12 22 30 32 33 34 34 36 37 36 36 37 37 37 37 36 36 36 36 35 34 33 32 31 29 28 28 27 26 26 25 25 24 24 24 23 24 24 23 21 20 19 19 19 18 18 19 18 18 16 15 17 18 18 18 18 19 20 20 18 18 20 21 21 21
3 2 2 2 2 2 4 3 3 5 3 5 5 4 9 9 6 5 4 6 8 9 9 8 9 9 8 8 8 9 9 10 14 24 31 33 34 35 35 35 36 36 35 36 37 37 37 36 37 36 36 35 35 33 32 32 30 29 28 27 26 26 26 25 25 26 26 24 24 24 23 22 22 21 21 20 19 19 19 18 18 18 19 19 19 19 19 20 20 20 20 19 19 22 22 22 20
6 5 4 4 4 4 4 4 4 4 5 5 7 7 10 10 7 6 6 2 5 8 6 5 7 8 8 7 8 9 10 12 18 26 29 31 33 34 36 36 36 36 36 35 36 37 38 38 37 37 37 36 35 34 33 33 32 31 29 28 28 28 27 27 27 27 26 26 25 23 23 24 23 22 22 22 21 21 21 18 16 16 17 18 18 19 20 21 19 18 18 20 21 23 24 23 20
5 2 2 4 5 4 4 3 5 1 5 6 7 8 9 7 8 7 4 2 4 7 6 7 7 7 8 8 9 10 11 12 15 21 25 28 32 33 34 35 34 35 35 35 35 36 38 38 38 39 38 37 36 35 35 34 33 32 31 31 31 30 29 29 28 28 27 26 25 23 23 24 23 23 23 22 22 22 22 21 16 14 14 15 16 17 18 18 16 15 17 20 23 25 25 22 18
4 2 2 4 4 5 5 3 5 2 4 5 3 5 9 8 9 6 1 2 8 9 8 9 9 9 8 8 10 10 9 8 8 13 19 24 28 31 32 33 33 34 35 36 36 36 36 37 39 39 39 38 37 37 36 36 36 34 33 33 32 31 30 31 30 29 27 26 24 23 23 22 22 22 21 20 20 20 21 21 18 17 16 14 14 15 17 18 17 16 17 20 24 24 22 19 16
6 3 2 3 4 3 4 3 4 2 2 4 1 4 9 9 9 6 4 7 8 8 10 10 10 10 9 9 10 10 9 7 7 10 16 22 27 29 31 32 34 35 36 37 37 37 36 37 39 39 39 39 39 38 38 37 37 36 34 33 32 31 30 31 31 28 26 25 25 23 23 22 20 20 19 18 18 17 17 18 19 20 17 15 16 16 17 20 20 17 18 21 23 22 20 18 17
5 3 3 3 3 3 3 3 2 2 1 1 2 3 7 7 5 6 8 9 6 6 9 10 9 10 11 11 10 11 11 10 10 9 12 18 23 26 29 32 33 34 35 36 36 36 37 38 39 39 39 39 39 39 39 38 36 35 34 32 30 29 28 28 28 28 27 26 25 23 23 22 20 20 18 17 17 16 16 17 17 18 16 16 19 18 17 18 17 17 20 21 20 19 18 17 17
4 5 5 3 4 5 4 3 1 2 2 1 3 2 5 5 5 7 8 5 5 6 8 9 10 10 9 8 9 10 11 11 11 10 10 14 20 25 30 31 32 33 34 36 38 38 38 39 39 39 39 39 39 39 38 37 35 33 32 30 27 26 27 26 26 29 28 27 26 24 23 21 20 19 18 17 17 16 16 16 16 16 16 18 19 19 20 18 15 19 22 21 20 20 19 19 17
5 5 8 8 9 8 4 5 5 3 3 2 0 1 5 5 4 9 6 3 5 6 7 11 12 10 8 8 10 9 9 9 10 10 10 14 20 24 27 29 30 32 35 37 38 39 39 39 39 39 39 39 38 38 38 37 36 34 32 31 28 27 27 28 28 29 28 27 26 24 22 21 20 19 18 17 16 15 16 16 16 17 17 17 15 17 20 20 19 21 22 21 20 19 18 19 19
5 5 7 7 7 7 7 7 5 2 3 3 1 4 5 6 4 8 5 4 8 6 7 11 11 9 9 10 10 8 9 8 8 9 9 12 18 20 24 28 30 33 36 37 37 38 38 38 38 38 38 38 38 38 38 37 36 35 34 34 33 30 28 28 27 26 25 25 24 23 21 20 18 17 16 15 14 14 13 13 13 14 14 15 15 18 21 20 18 17 17 18 17 17 18 19 19
5 4 7 8 8 8 8 9 5 3 3 3 4 3 3 4 5 7 3 3 8 8 9 12 11 11 10 10 10 10 10 9 8 9 9 11 16 20 25 30 33 34 35 34 34 36 37 37 37 38 38 38 37 37 37 37 37 36 35 35 33 32 30 27 24 22 22 22 21 20 18 16 16 14 14 13 12 11 9 9 11 11 10 11 12 12 12 11 11 11 11 12 13 15 17 18 18
6 4 7 7 7 7 7 7 4 1 2 2 4 2 2 5 6 6 2 2 7 8 10 12 12 12 11 10 11 11 10 8 8 9 9 12 17 22 26 28 31 32 31 31 33 34 35 35 35 35 37 37 37 37 37 37 37 36 35 34 32 31 29 25 21 20 19 19 18 17 16 15 14 12 12 12 11 9 9 9 9 8 8 8 6 5 5 7 7 6 5 6 7 8 10 12 14
4 6 6 5 5 5 4 5 4 3 1 5 6 2 2 5 6 4 2 2 6 8 8 9 10 10 10 10 11 10 8 6 7 7 9 12 17 20 22 22 24 27 28 28 29 30 31 33 33 33 35 37 37 37 37 37 36 36 34 33 31 28 25 22 19 17 16 16 15 15 14 13 11 10 10 10 10 9 8 8 8 7 8 10 10 9 9 8 7 7 7 7 6 6 7 8 10
6 7 6 6 5 4 3 2 4 3 2 6 7 3 2 3 5 4 4 4 6 6 7 8 7 7 8 9 8 7 6 6 6 5 5 7 10 13 16 18 20 22 24 25 26 27 29 31 32 32 33 35 36 36 36 36 36 35 34 32 30 27 24 21 20 18 17 16 15 14 13 12 11 11 10 10 9 8 8 9 10 11 12 13 14 13 11 10 10 11 11 10 10 9 9 9 10
6 5 4 4 3 4 3 4 3 2 5 6 5 2 3 3 5 5 5 6 6 6 7 8 8 8 7 7 6 7 6 6 5 4 4 5 6 8 10 13 15 18 21 23 25 26 27 29 30 31 32 32 33 34 35 35 35 35 34 31 30 28 25 23 22 20 18 16 15 14 14 13 12 12 11 11 10 10 10 11 11 10 10 11 12 13 14 14 15 14 13 12 12 11 11 10 10
4 4 6 5 1 2 0 3 1 3 5 4 2 1 2 5 7 8 9 11 9 8 8 8 8 8 7 6 6 6 5 5 5 5 4 4 5 7 9 11 13 16 18 21 23 25 26 27 28 30 31 30 30 31 32 33 33 33 32 30 29 27 26 25 23 20 17 16 16 15 14 13 12 12 12 12 12 11 11 9 7 4 3 3 4 6 7 7 7 8 8 7 7 7 7 6 6
3 6 6 4 3 2 3 4 2 3 4 3 2 2 2 4 6 10 14 14 8 5 9 9 8 8 7 6 5 5 5 5 5 5 5 5 6 9 11 12 14 16 17 19 20 23 24 25 25 27 28 28 28 29 29 30 30 30 29 28 27 26 26 24 22 19 17 16 15 15 14 13 12 12 11 11 10 10 9 7 4 2 1 1 2 3 2 3 3 4 4 3 1 2 3 3 4
3 4 5 5 5 4 4 4 3 4 3 2 2 1 3 3 4 7 10 10 7 4 7 6 6 7 5 4 4 4 5 5 4 4 5 5 8 10 11 13 15 16 17 18 19 21 22 23 24 25 26 26 26 27 27 27 27 26 25 25 24 24 24 22 20 18 17 16 16 15 15 14 13 12 11 10 9 8 7 6 5 4 3 3 2 1 2 4 5 7 8 8 8 8 7 6 6
3 2 5 4 5 5 3 3 5 4 1 1 2 3 4 4 6 7 5 7 7 5 5 4 4 5 2 4 5 5 5 5 4 4 5 6 8 10 12 14 15 16 17 18 19 20 21 22 22 23 24 24 24 25 24 24 25 24 23 23 22 22 22 21 20 17 16 15 15 15 15 14 13 12 11 10 9 8 7 6 6 5 3 3 2 2 3 4 6 7 8 10 12 13 13 13 12
2 3 4 5 3 6 4 2 1 3 1 3 1 3 5 3 6 8 5 6 8 5 5 4 4 4 2 5 6 5 5 5 4 5 5 5 7 9 11 13 13 14 15 16 18 19 20 21 21 21 21 22 22 22 23 22 22 22 21 21 22 22 22 21 20 18 16 15 15 15 16 15 14 12 11 10 8 7 7 6 6 5 6 6 7 7 8 9 9 11 12 13 14 14 14 14 14
5 4 6 3 2 4 3 2 2 3 2 4 0 4 4 1 3 6 7 6 9 7 6 5 5 4 5 6 6 6 6 5 5 4 4 4 6 8 9 10 10 11 12 13 14 16 17 18 19 20 20 21 21 21 21 22 22 22 22 22 22 22 22 21 19 18 17 17 17 16 16 15 14 12 11 10 9 9 9 9 10 11 12 12 13 13 13 13 13 14 14 15 15 14 14 15 14
4 4 4 4 2 2 1 3 1 1 3 4 3 3 3 3 4 4 5 7 9 8 6 5 7 7 7 7 7 7 5 5 5 4 3 4 6 8 9 9 9 10 11 12 13 13 15 16 18 20 20 21 21 22 22 23 23 24 24 23 23 22 21 20 19 19 19 19 18 17 16 15 14 13 12 13 13 14 15 15 16 16 16 16 16 16 15 15 14 14 15 15 15 14 14 15 15
2 2 2 2 2 4 3 3 3 3 3 3 3 2 3 5 6 5 8 9 8 8 6 7 10 10 8 8 8 7 6 6 5 5 4 4 7 8 10 11 10 10 11 12 13 14 16 17 19 21 21 22 22 23 24 24 24 25 24 23 22 21 20 20 21 21 20 20 19 18 17 17 17 16 17 18 18 18 19 18 18 17 17 17 16 15 15 14 14 14 14 14 14 14 14 14 14
2 2 4 2 1 2 2 1 3 4 3 3 2 2 5 6 5 8 10 10 8 7 6 8 9 8 8 9 8 7 7 6 5 5 5 5 7 9 10 10 10 10 11 13 15 16 18 20 21 23 23 24 24 24 25 25 24 24 23 22 21 21 22 22 22 21 21 20 20 19 20 21 21 21 21 21 21 20 19 18 18 17 16 16 15 15 15 14 14 14 14 14 14 14 14 13 14
4 5 7 7 3 4 2 3 2 2 2 4 4 3 7 6 4 7 10 8 6 5 6 8 8 8 9 8 8 7 7 6 6 5 5 6 8 9 10 11 11 12 13 14 16 18 19 20 21 23 24 24 24 24 24 24 23 23 23 23 24 24 24 23 22 22 22 22 22 23 24 24 24 24 22 22 21 20 19 18 17 16 15 15 14 14 14 13 13 13 13 13 13 13 14 15 16
Wind_Direction
305 322 335 337 327 328 299 79 52 323 83 98 291 112 185 202 143 114 98 48 64 350 324 59 52 73 93 110 133 120 75 169 181 148 217 175 145 148 153 157 159 157 156 151 150 143 139 140 134 125 119 120 112 106 110 111 113 114 112 110 107 105 102 98 98 97 96 94 93 90 90 92 92 91 90 89 86 87 86 84 83 83 84 84 85 85 86 85 85 86 85 85 89 95 93 88 88
314 325 346 348 332 357 258 80 82 323 38 30 293 155 209 350 79 138 146 117 117 155 128 88 79 77 95 123 131 95 47 343 146 142 98 135 140 145 156 161 162 158 154 148 146 141 138 138 133 124 120 120 111 107 111 113 115 114 112 109 106 105 102 100 100 100 100 99 98 97 97 96 94 93 93 92 90 90 87 84 83 84 84 85 86 87 87 86 86 87 89 89 93 99 94 89 89
323 334 0 7 354 58 24 42 88 17 57 239 269 255 53 86 147 179 158 133 152 154 120 92 81 77 94 99 61 67 44 330 54 84 113 135 138 151 162 164 162 157 149 145 143 139 138 137 133 125 121 123 116 109 110 113 115 115 113 109 108 108 105 104 102 102 104 104 103 103 101 96 94 93 93 93 93 91 86 86 86 86 87 87 87 88 88 87 88 90 94 95 97 100 94 90 90
332 346 357 28 36 33 55 44 141 126 146 212 216 285 146 145 175 183 151 146 180 143 102 79 62 12 77 92 70 68 94 357 83 97 131 148 149 157 163 162 160 153 145 144 141 138 138 139 136 129 123 128 126 115 113 113 114 116 114 112 111 109 106 104 103 104 106 107 108 107 103 99 99 97 95 93 93 92 88 89 90 89 89 89 89 88 88 89 90 93 98 100 102 101 93 91 91
330 350 5 63 75 18 86 64 87 108 209 193 149 254 209 169 174 163 146 243 232 106 100 90 72 320 56 92 123 102 123 117 114 120 130 151 154 158 162 161 157 149 146 143 140 138 138 141 140 133 125 129 129 119 118 116 116 117 117 116 114 110 108 107 106 108 109 111 113 110 104 103 102 100 98 97 97 95 94 95 93 93 93 93 92 91 91 91 93 96 101 104 106 101 94 93 93
329 14 41 64 90 153 104 307 296 270 231 169 140 214 199 180 174 149 128 306 12 81 97 83 108 130 65 11 55 118 173 131 124 142 140 149 157 160 161 159 155 149 148 143 141 137 136 143 142 136 128 130 130 122 121 120 119 118 120 121 116 113 111 111 111 113 114 115 114 111 108 108 105 102 103 103 101 98 97 98 94 94 97 97 96 96 95 95 96 98 105 107 105 100 97 97 95
357 29 34 55 15 40 105 214 236 253 238 167 157 174 186 197 181 137 129 123 42 42 65 88 130 114 77 334 52 40 211 153 136 152 155 155 159 160 159 158 153 149 147 143 141 136 136 142 142 140 137 137 133 126 122 122 124 122 125 124 118 114 112 113 113 116 117 116 113 111 113 112 108 106 107 107 104 101 101 101 101 99 98 98 97 97 96 97 97 102 110 110 104 102 99 98 97
24 45 45 84 12 15 103 230 243 223 44 153 167 171 179 186 181 138 135 137 89 66 68 122 138 99 15 27 79 331 145 152 147 153 157 156 159 159 160 159 153 150 147 145 140 136 137 140 143 144 141 137 133 127 123 127 129 127 128 125 121 116 115 116 116 119 119 118 115 114 117 115 113 110 108 106 104 105 105 105 106 103 101 100 98 98 96 97 100 107 114 115 111 107 102 99 96
41 48 31 82 155 6 21 282 262 231 288 141 155 176 178 176 175 133 129 122 127 117 95 180 137 105 153 46 81 317 101 144 148 151 155 156 160 160 162 160 154 151 148 147 142 137 137 141 143 141 137 134 131 127 128 132 132 132 132 128 123 118 118 118 119 121 119 118 118 117 116 111 109 111 109 106 105 106 106 105 105 104 104 103 102 102 99 99 102 106 115 122 120 113 105 100 97
42 26 90 95 100 3 319 285 266 239 212 177 172 172 176 179 160 127 129 137 133 108 103 169 84 108 141 76 80 335 118 143 144 147 155 159 161 162 163 160 156 153 151 149 143 137 134 138 140 139 138 135 132 128 132 135 134 135 137 133 125 121 120 120 121 120 119 121 121 119 115 110 110 112 111 107 106 107 106 105 105 105 104 104 104 105 105 103 102 105 117 129 128 121 112 103 100
40 354 103 90 67 136 250 257 278 251 259 274 199 182 183 172 129 104 112 124 115 108 139 96 82 117 109 77 270 128 138 144 145 149 157 161 162 165 164 159 158 155 152 149 144 137 133 135 139 142 142 141 136 129 131 132 133 137 142 137 126 126 124 123 125 121 124 128 124 121 119 124 126 121 114 109 108 111 110 106 105 105 106 107 107 107 109 108 106 108 118 129 129 127 120 111 105
86 332 68 95 153 193 217 187 226 230 284 133 186 214 189 154 122 122 126 129 120 114 161 152 136 147 83 60 258 149 147 148 150 153 159 162 165 168 165 159 159 158 154 150 146 139 134 135 140 146 147 146 143 138 139 139 138 139 142 139 129 127 125 129 131 127 132 138 134 130 130 136 136 128 123 118 113 114 113 111 110 107 104 104 106 107 108 111 110 109 115 121 123 125 123 118 111
119 148 86 134 195 174 184 165 211 170 199 204 192 210 158 145 139 152 139 128 132 120 184 175 144 121 79 162 257 187 162 156 153 153 161 164 167 169 163 159 160 161 157 154 150 142 139 138 141 148 152 152 154 151 149 150 150 147 146 145 140 132 126 135 139 136 137 141 142 139 138 140 139 133 131 127 116 114 117 118 118 111 105 104 106 107 109 114 113 112 116 118 119 124 126 125 118
134 156 110 201 235 139 161 141 208 149 198 233 211 190 151 146 151 157 131 122 151 138 143 147 139 110 91 170 134 238 182 163 157 155 163 166 170 168 161 160 162 164 161 159 155 149 145 144 145 150 156 159 164 163 152 150 154 157 157 153 149 141 131 138 144 140 134 136 142 142 142 144 143 139 138 137 126 123 123 121 118 111 111 114 113 113 116 115 114 116 119 119 119 123 127 129 126
166 157 91 135 326 316 189 160 179 155 208 232 192 166 116 61 140 147 139 139 182 178 118 121 145 131 156 170 179 206 183 168 161 159 165 168 171 166 162 161 164 167 164 164 161 156 152 151 152 151 157 162 169 170 158 150 149 154 157 155 152 146 137 136 140 139 134 138 144 146 148 148 147 147 147 145 136 134 130 123 113 102 105 117 119 118 118 117 118 121 121 121 121 121 122 123 126
125 109 72 51 288 262 232 165 135 139 220 223 208 160 98 37 118 129 209 145 126 19 68 119 267 185 165 177 185 180 174 168 161 160 162 162 165 163 163 163 165 168 167 168 167 164 159 158 159 157 158 161 168 170 165 160 152 147 145 147 151 151 145 138 138 141 141 143 148 152 155 155 154 151 151 154 148 144 141 130 114 101 102 114 121 120 121 124 125 125 124 123 118 114 112 115 120
75 78 72 322 237 219 229 172 169 169 209 216 238 223 114 100 81 118 332 84 102 49 40 91 323 55 167 187 169 165 168 167 159 156 156 155 158 158 161 164 166 169 171 174 174 172 168 165 166 164 164 164 167 169 168 168 163 156 148 143 144 149 151 146 142 140 143 146 152 160 163 166 165 161 158 162 166 169 167 151 131 111 103 111 121 124 126 129 130 130 129 123 117 113 114 118 120
69 82 133 226 216 204 201 178 199 176 172 190 207 199 131 142 175 142 55 56 84 67 28 2 7 30 145 145 151 159 166 166 157 155 154 154 157 158 163 166 167 171 174 178 180 179 175 173 171 169 171 170 171 171 171 171 170 168 161 152 144 145 151 153 150 142 141 142 146 155 163 170 170 171 175 176 179 180 178 161 143 124 110 114 123 129 131 134 136 135 132 127 121 118 123 127 126
112 128 148 222 209 210 213 184 199 175 163 172 175 179 147 153 167 134 110 116 113 84 17 353 41 55 96 130 145 157 166 164 159 158 159 160 162 163 166 168 170 173 174 179 182 181 180 179 177 176 175 176 178 177 176 175 174 172 168 165 156 152 152 155 156 148 142 140 141 143 146 153 150 149 161 183 193 186 178 167 153 140 130 126 132 141 142 145 146 142 138 135 130 126 130 135 136
189 146 203 242 221 239 251 192 204 204 159 153 166 177 157 174 174 128 133 146 142 136 160 77 96 126 119 135 148 157 167 166 164 164 165 168 168 168 168 171 175 177 178 181 181 180 182 181 181 182 180 180 182 182 183 182 179 176 174 172 171 168 163 160 161 157 151 148 148 147 146 146 142 134 130 163 203 202 188 179 174 164 154 148 150 158 160 158 157 155 151 149 147 142 142 145 148
219 158 196 235 235 274 271 243 226 221 163 151 151 138 152 196 190 131 135 131 202 213 202 180 166 163 146 147 156 162 169 172 172 171 172 174 174 174 174 176 179 181 181 182 183 183 182 182 183 184 186 186 183 184 184 187 185 182 179 177 179 181 179 172 167 165 161 159 159 162 165 164 165 169 170 183 217 219 205 193 189 186 183 174 170 176 177 174 173 171 169 168 170 171 167 162 163
200 219 211 225 196 245 273 287 208 167 140 132 136 144 162 175 139 153 149 149 217 216 210 190 166 162 159 159 161 166 173 178 181 179 179 180 181 180 180 179 180 181 182 186 189 188 185 185 185 185 191 191 188 188 185 188 192 189 187 184 186 188 189 184 173 170 168 166 169 178 185 184 184 192 242 261 249 231 213 206 204 202 205 198 191 191 192 190 187 187 191 192 194 206 215 219 218
217 263 243 240 202 214 291 335 227 155 134 146 156 164 146 133 155 184 167 179 221 210 189 178 167 164 160 157 160 168 177 185 188 187 185 185 185 185 184 184 184 184 184 189 193 193 190 189 189 189 195 195 192 194 191 193 196 196 194 190 192 194 193 191 183 177 174 174 176 187 194 189 188 203 240 256 249 220 206 210 217 217 219 211 200 198 203 205 201 203 210 214 217 224 234 239 240
205 254 275 270 205 213 289 353 287 194 166 172 149 133 142 154 166 167 190 215 236 234 169 161 159 156 153 156 166 174 180 187 193 194 192 189 190 189 188 189 190 190 190 191 194 196 194 192 193 194 199 199 195 196 198 200 199 199 197 192 192 195 197 197 193 184 180 184 187 192 196 193 199 221 238 246 241 214 208 208 216 226 222 211 204 201 208 215 215 216 221 232 240 242 245 248 251
203 233 258 282 238 251 317 7 310 195 191 154 122 133 167 182 163 150 209 230 249 40 143 148 147 150 158 167 173 177 182 189 195 198 198 196 194 193 194 194 193 194 196 194 193 197 196 195 196 199 204 204 199 199 203 204 201 199 198 194 190 192 199 198 196 191 183 186 196 203 206 207 214 228 236 241 241 226 223 221 222 235 227 216 216 217 224 231 235 236 238 249 257 258 257 257 260
219 222 225 226 293 319 355 14 155 170 204 150 130 128 196 228 187 166 219 217 121 89 133 145 146 157 171 176 178 180 184 190 193 198 201 201 199 198 199 198 198 199 200 199 197 198 197 197 199 202 205 205 203 204 206 207 204 202 201 198 195 196 201 198 196 199 193 188 197 209 217 225 229 231 233 235 240 241 241 238 235 243 243 236 237 243 249 255 260 263 267 272 276 273 268 268 272
278 243 201 180 215 351 19 331 258 193 252 178 143 135 245 303 346 194 231 201 121 111 137 153 156 167 178 181 186 185 187 192 193 195 197 201 202 202 202 201 203 203 203 204 202 201 199 199 202 203 206 206 206 208 209 209 209 207 206 203 203 205 205 203 202 207 208 201 203 215 222 229 236 237 234 232 237 245 253 254 248 248 252 251 255 262 263 264 266 270 277 282 284 281 279 279 278
301 229 147 62 13 343 1 227 258 239 110 180 131 120 318 352 337 218 221 174 138 133 148 167 169 175 182 183 190 190 195 197 194 192 194 200 203 202 204 204 205 206 207 207 206 204 202 202 204 206 207 207 207 211 211 211 212 212 211 208 208 210 208 207 207 210 216 214 214 220 225 228 233 238 238 235 237 241 250 259 258 253 254 258 263 268 266 265 264 268 274 276 280 281 282 283 281
303 201 164 315 7 323 239 188 251 244 161 190 132 91 317 281 229 238 196 151 139 139 155 176 182 183 185 186 191 196 202 198 193 198 201 202 203 202 204 206 205 207 210 209 208 206 205 205 207 208 209 208 209 211 213 214 214 213 213 213 211 211 210 210 211 212 218 222 221 222 225 227 230 239 243 243 242 241 245 253 258 257 257 260 264 269 269 266 264 266 271 274 278 279 282 286 284
297 236 176 150 42 294 241 185 197 194 193 209 154 181 265 242 235 242 162 148 134 144 169 183 188 190 190 192 195 204 204 197 198 205 206 204 204 204 205 206 206 208 210 209 209 209 208 208 209 210 210 210 211 212 214 215 215 214 214 215 213 212 213 215 216 217 223 224 224 226 229 229 231 237 243 244 243 242 242 246 254 257 258 261 264 268 268 266 266 268 273 276 278 279 282 285 284
270 247 188 145 162 255 264 186 148 167 221 69 118 208 250 243 239 232 179 162 150 165 185 188 193 196 196 200 201 209 206 202 206 207 207 206 205 206 207 207 207 209 210 210 211 211 210 210 210 210 211 212 212 213 216 216 217 216 215 216 215 216 218 221 221 222 229 229 225 227 231 234 235 238 241 241 241 242 241 242 250 254 257 261 265 269 270 267 266 270 274 276 278 279 281 283 284
355 185 236 226 170 257 294 208 164 166 218 78 117 208 263 255 251 239 188 177 168 174 187 192 198 200 198 205 206 213 216 212 213 213 211 210 207 207 208 208 209 210 211 211 211 211 211 212 211 212 212 213 214 216 218 218 219 218 218 218 218 220 222 224 225 227 232 231 229 230 232 234 234 237 239 239 240 243 245 244 248 251 252 257 265 268 268 266 266 271 277 279 278 278 282 285 286
344 142 212 222 173 241 294 258 212 174 147 138 146 200 250 266 281 268 180 181 182 178 191 198 201 206 200 203 208 212 219 218 219 219 217 214 211 210 209 209 210 212 213 212 211 210 211 212 212 213 214 214 215 217 218 219 219 220 220 220 221 224 225 226 227 228 233 232 230 232 235 234 233 236 237 238 241 244 247 248 250 252 254 257 264 266 265 267 269 272 277 280 280 279 281 285 288
317 27 189 221 186 187 211 274 263 181 171 208 185 206 243 266 301 295 187 179 182 187 198 203 205 211 207 203 209 213 215 215 218 218 217 215 213 212 211 211 211 213 215 214 213 212 211 212 212 214 215 215 216 217 218 219 220 220 221 222 224 225 227 228 228 228 234 235 232 233 236 237 236 237 237 239 244 248 251 253 253 254 258 259 260 262 261 262 264 264 267 272 277 278 279 283 289
225 216 180 231 225 198 206 240 234 174 199 220 184 229 257 264 295 294 239 181 183 204 204 206 211 212 213 208 208 213 214 219 220 217 216 215 214 213 212 212 212 213 215 214 213 213 212 211 212 213 215 215 217 219 219 219 219 219 220 222 225 227 228 228 229 230 233 236 236 235 237 240 240 240 240 243 248 251 253 258 258 255 258 261 261 261 260 261 265 269 271 271 273 275 277 281 286
186 195 169 172 198 234 226 233 260 180 183 223 194 216 243 251 272 270 263 211 194 228 232 222 223 218 220 216 214 217 214 223 223 218 216 214 213 214 213 213 213 213 214 213 212 212 212 211 211 212 214 215 216 217 217 216 215 216 217 219 222 224 226 228 229 232 234 237 239 239 238 240 243 245 247 250 252 251 252 258 262 259 259 262 263 265 265 266 271 278 280 277 276 276 276 276 279
183 173 170 191 192 236 250 247 299 217 175 229 209 221 248 256 264 254 257 276 233 243 243 236 234 226 224 220 221 220 218 228 226 220 218 215 214 214 214 213 213 213 214 214 213 212 213 212 211 211 213 214 214 214 213 211 211 210 212 216 220 223 225 228 231 232 235 237 239 242 241 241 244 247 250 252 253 252 253 255 262 266 259 258 263 266 266 267 271 278 279 277 275 273 272 273 278
221 227 239 255 210 232 265 250 302 323 184 241 222 238 262 257 255 257 190 214 234 230 223 231 233 230 230 225 226 225 229 240 229 222 219 215 214 214 213 212 212 212 212 213 214 214 214 213 213 212 212 212 214 214 212 212 212 212 214 217 221 224 226 228 231 233 234 236 239 242 244 244 246 249 251 253 255 255 255 255 259 260 252 256 270 274 271 264 259 264 272 275 274 270 269 273 278
223 216 184 256 239 241 283 276 311 359 190 255 245 218 253 255 251 259 225 216 234 226 215 223 224 225 228 222 227 230 233 242 233 226 220 214 214 212 212 212 212 213 212 213 214 214 214 214 214 214 213 213 214 214 214 215 217 219 221 223 224 226 229 231 232 235 237 237 240 241 243 245 248 251 251 252 255 257 257 257 260 260 256 262 270 273 274 266 259 265 274 276 274 268 267 269 272
215 181 159 236 242 194 247 258 298 27 130 214 145 196 265 274 277 273 246 227 240 236 223 231 227 222 225 219 221 221 220 226 229 232 223 216 214 212 211 211 212 212 212 212 212 212 212 213 214 213 213 215 215 216 218 219 221 222 224 226 229 232 234 235 235 238 239 239 241 243 243 245 248 252 252 251 252 255 257 259 262 263 261 263 265 268 272 269 268 276 278 276 272 263 261 267 273
233 193 172 206 216 195 208 197 130 9 2 95 104 3 300 271 264 264 253 230 242 244 228 241 244 234 240 245 238 226 218 217 218 221 219 213 212 212 212 212 211 210 211 212 212 211 212 213 214 214 215 217 217 218 219 219 219 219 220 222 227 232 233 233 233 234 235 237 240 242 244 246 249 252 253 253 252 254 260 263 265 264 263 265 269 273 272 267 269 273 272 272 269 263 263 269 276
254 218 197 207 204 191 171 132 95 47 317 292 175 307 290 291 267 248 257 271 250 243 226 236 246 241 242 251 245 235 231 228 222 222 217 209 209 212 213 212 211 211 212 213 213 213 213 214 215 215 217 218 219 220 219 218 217 216 215 215 217 220 223 225 227 229 231 233 237 241 245 247 249 251 252 252 252 257 264 266 268 267 267 270 274 279 277 269 266 270 274 275 273 272 274 274 277
249 230 196 195 180 158 145 144 120 123 229 292 67 180 256 315 296 249 263 279 256 255 246 243 247 240 231 233 236 233 233 233 232 236 229 214 209 208 211 213 211 212 215 214 214 214 214 215 216 216 218 218 219 220 219 217 216 217 216 216 216 216 219 222 225 229 232 234 237 240 243 244 244 247 248 249 253 260 266 267 269 270 272 277 276 277 276 271 269 277 286 285 281 282 279 273 278
238 231 162 148 150 159 162 160 153 178 205 329 23 133 230 288 272 263 278 276 271 271 257 251 246 238 233 231 235 232 228 223 220 228 226 216 212 209 210 212 213 215 216 215 214 215 216 217 218 218 218 219 219 219 219 218 217 218 218 218 218 218 221 224 226 230 234 236 236 234 234 233 233 235 237 243 249 253 256 257 263 264 266 276 276 269 272 279 285 293 297 291 286 285 281 274 279
232 200 147 141 148 160 157 147 138 87 132 293 306 132 192 266 275 297 328 264 276 267 248 247 243 237 234 232 234 233 231 226 219 222 221 215 212 212 213 213 213 215 215 215 215 216 217 217 219 219 219 219 220 219 220 220 220 220 219 218 218 219 222 225 227 231 231 230 227 222 220 221 223 226 229 235 238 237 241 242 244 243 246 262 278 283 291 299 303 308 315 321 320 311 304 298 297
198 136 109 84 79 89 101 118 111 64 103 234 251 197 184 268 282 305 325 255 256 257 252 246 241 239 233 231 235 235 236 233 228 230 227 221 217 216 216 216 216 215 215 216 217 217 217 217 218 219 220 220 220 220 220 220 220 220 220 219 217 217 218 220 222 221 217 214 211 209 212 216 220 223 223 223 223 223 226 230 235 242 249 259 274 284 285 286 292 302 307 316 331 337 331 325 322
133 110 83 67 45 41 52 61 93 94 272 248 245 227 183 266 281 249 228 227 220 235 266 267 264 261 242 234 233 228 227 222 213 210 211 210 210 213 216 218 219 218 218 218 218 217 217 217 217 218 220 220 220 220 220 220 220 219 219 219 217 216 215 213 211 207 203 201 200 201 204 208 210 211 209 211 216 221 229 241 251 259 260 259 264 270 273 276 280 285 289 291 296 308 314 313 317
118 107 106 92 9 10 28 359 46 152 252 258 250 231 171 219 263 245 240 255 235 218 246 263 270 273 256 245 238 219 208 200 188 175 168 161 166 185 200 209 215 217 219 219 218 218 219 219 219 219 219 219 219 219 219 220 219 219 219 219 219 218 215 211 207 203 200 198 198 198 198 201 203 205 209 216 223 229 238 246 251 254 255 252 254 256 260 264 267 270 273 277 283 291 297 303 310
103 121 128 120 15 20 94 286 289 213 245 261 248 212 192 229 251 258 263 266 255 224 225 244 259 270 263 245 234 219 201 191 185 181 182 178 176 186 192 198 206 211 215 218 217 217 218 219 220 220 220 219 218 218 218 218 218 217 218 218 219 218 215 212 208 203 199 199 199 198 198 201 204 209 214 217 221 224 229 238 241 239 240 250 260 262 260 259 263 267 264 265 273 281 290 302 310
137 147 144 138 130 120 209 247 286 252 252 271 262 235 253 267 261 252 250 258 267 235 230 238 244 256 251 227 221 222 215 204 197 195 195 202 206 205 205 206 209 212 214 214 214 214 215 216 217 219 219 218 216 215 214 215 214 214 215 215 215 214 212 209 205 200 197 195 196 196 200 205 207 207 207 204 206 210 213 218 223 224 229 288 309 323 18 74 66 50 52 46 7 317 303 298 302
180 164 140 148 158 158 199 218 211 229 256 285 278 234 190 202 244 238 236 262 292 272 256 259 253 258 245 217 219 221 226 227 217 214 212 219 219 215 218 219 218 220 219 217 215 213 213 213 213 214 213 211 209 209 208 208 208 207 207 207 207 206 203 199 196 195 195 194 194 196 199 204 203 196 190 188 189 194 200 203 209 222 234 236 248 291 61 77 65 56 55 51 52 53 49 44 29
207 138 123 173 182 151 152 187 183 175 162 257 235 234 210 208 269 270 254 275 284 290 314 314 275 278 250 211 221 217 230 239 230 226 230 236 229 222 222 222 222 224 224 224 221 217 214 212 210 209 207 203 200 200 199 199 198 197 196 197 196 195 194 190 186 186 189 192 195 196 194 192 191 186 183 187 190 194 201 206 211 215 214 210 189 143 98 82 71 69 68 64 63 62 61 60 52
164 125 176 215 165 119 121 196 163 98 176 250 189 245 286 319 290 293 324 298 280 296 318 298 271 283 251 225 226 225 230 227 219 221 224 226 219 217 220 220 222 224 225 226 224 221 218 214 208 203 199 195 192 192 191 189 188 186 187 188 188 188 186 184 183 183 185 187 187 188 185 181 182 186 187 190 190 189 188 185 182 166 143 128 118 111 103 97 91 86 81 75 70 65 61 57 52
128 166 197 191 110 95 113 168 10 50 222 273 250 219 276 326 261 311 338 293 274 273 265 270 281 268 241 237 233 233 233 225 228 225 217 209 196 198 204 207 214 219 222 225 223 220 217 213 207 198 191 186 184 183 182 181 181 179 177 178 179 180 181 183 186 187 185 182 178 177 179 178 179 183 183 177 169 162 155 147 141 132 122 113 108 104 99 96 91 85 79 73 66 61 55 49 42
139 178 169 129 154 208 147 160 175 170 221 281 305 249 251 201 216 290 288 245 252 258 242 240 252 237 227 238 239 241 241 231 228 217 205 198 182 180 184 188 196 202 209 215 212 208 204 200 196 190 185 181 178 178 176 175 177 175 172 172 174 177 182 187 186 182 179 179 177 176 178 177 172 168 163 154 147 141 136 129 123 118 112 108 104 99 95 89 83 76 71 65 58 52 46 41 34
46 96 131 116 153 179 179 165 161 174 204 246 297 308 259 227 216 220 234 235 234 238 233 226 232 224 216 226 228 227 222 215 211 200 198 192 180 177 176 178 182 187 194 197 195 192 186 182 180 177 176 173 173 174 173 172 174 174 172 173 176 180 183 183 178 177 179 179 178 176 171 164 155 149 144 140 134 129 126 121 117 113 109 105 100 94 87 80 74 68 62 56 49 43 36 31 25
123 131 174 193 67 132 164 163 128 136 163 193 234 288 263 247 214 198 224 241 231 218 222 235 239 228 218 220 219 214 207 207 204 191 189 185 178 175 172 172 174 174 179 182 184 184 179 177 177 175 173 171 171 173 174 175 175 177 178 178 178 178 177 176 175 177 178 174 170 165 156 149 143 138 135 133 128 125 122 119 115 111 106 100 93 87 80 72 66 59 53 47 39 33 27 20 14
176 183 184 183 166 124 150 234 209 136 168 177 172 239 265 255 206 201 224 241 244 221 215 240 250 234 226 223 214 210 204 202 196 181 178 178 174 172 169 169 169 168 171 173 176 179 177 177 178 177 175 175 175 175 175 176 176 176 176 173 172 173 173 174 174 172 168 162 157 151 146 142 137 133 132 130 126 123 121 117 113 106 100 94 86 79 74 67 60 53 46 40 31 24 17 9 6